This is the latest recevied weather packets stored in our database for station/object N1JOV-7. If no packets are shown the sender has not sent any weather packets the latest 10 day(s).
| Time | Temp. | Humidity | Pressure | Rain* | Wind** | Luminosity | Snow |
|---|---|---|---|---|---|---|---|
| 1788431461 | 16.11° C | 99% | 1017.3 hPa | 0 mm | - | - | - |
| 1788430861 | 16.11° C | 99% | 1017.4 hPa | 0.76 mm | - | - | - |
| 1788430263 | 16.11° C | 99% | 1017.2 hPa | 2.03 mm | - | - | - |
| 1788429662 | 16.11° C | 99% | 1017.4 hPa | 2.54 mm | - | - | - |
| 1788429061 | 16.11° C | 99% | 1017.3 hPa | 2.29 mm | - | - | - |
| 1788428461 | 16.11° C | 99% | 1017.8 hPa | 1.02 mm | - | - | - |
| 1788427861 | 16.11° C | 99% | 1017.8 hPa | 0 mm | - | - | - |
| 1788427261 | 16.11° C | 99% | 1017.6 hPa | 0 mm | - | - | - |
| 1788426661 | 16.11° C | 99% | 1017.6 hPa | 0 mm | - | - | - |
| 1788426061 | 16.11° C | 99% | 1017.7 hPa | 0 mm | - | - | - |
| 1788425461 | 16.11° C | 99% | 1017.7 hPa | 0 mm | - | - | - |
| 1788424861 | 16.11° C | 99% | 1017.5 hPa | 0 mm | - | - | - |
| 1788424262 | 16.11° C | 99% | 1017.3 hPa | 0.76 mm | - | - | - |
| 1788423662 | 16.11° C | 99% | 1017.4 hPa | 0.76 mm | - | - | - |
| 1788423062 | 16.11° C | 99% | 1017.6 hPa | 0 mm | - | - | - |
| 1788421861 | 16.11° C | 99% | 1017.9 hPa | 1.27 mm | - | - | - |
| 1788421261 | 16.11° C | 99% | 1018 hPa | 0 mm | - | - | - |
| 1788420661 | 16.11° C | 98% | 1018.1 hPa | 0 mm | - | - | - |
| 1788420061 | 16.11° C | 98% | 1018.7 hPa | 0 mm | - | - | - |
| 1788419461 | 16.11° C | 97% | 1018.8 hPa | 0 mm | - | - | - |
| 1788418861 | 16.11° C | 97% | 1018.9 hPa | 0.76 mm | - | - | - |
| 1788418262 | 16.11° C | 96% | 1018.9 hPa | 0 mm | - | - | - |
| 1788417662 | 16.11° C | 96% | 1019 hPa | 0 mm | - | - | - |
| 1788417062 | 16.11° C | 96% | 1019 hPa | 0 mm | - | - | - |
| 1788416462 | 16.11° C | 96% | 1019.2 hPa | 0 mm | - | - | - |
* Rain latest hour (hover to see other rain measurements)
** Current wind speed in m/s (hover to see current wind gust speed)